| time (UTC) | temp C | wind direction | speed KPH | gust KPH | rain 1hr cm | rain 24hr cm | rain mn cm | humidity % | barometer mb |
| 20260506010906 | 8 | 112 | 1.6 | 3.2 | 0.00 | 0.00 | 0.00 | 74 | 1006.9 |
| 20260506010008 | 8 | 97 | 3.2 | 6.4 | 0.00 | 0.00 | 0.00 | 74 | 1007.1 |
| 20260506005621 | 8 | 94 | 3.2 | 6.4 | 0.00 | 0.00 | 0.00 | 74 | 1006.9 |
| 20260506004507 | 8 | 78 | 3.2 | 6.4 | 0.00 | 0.00 | 0.00 | 74 | 1007.2 |
| 20260506003821 | 8 | 74 | 4.8 | 6.4 | 0.00 | 0.00 | 0.00 | 74 | 1007.1 |
| 20260506002710 | 8 | 75 | 8.0 | 9.7 | 0.00 | 0.00 | 0.00 | 74 | 1007.1 |
| 20260506001806 | 8 | 77 | 6.4 | 9.7 | 0.00 | 0.00 | 0.00 | 74 | 1007.0 |
| 20260506001118 | 8 | 81 | 8.0 | 9.7 | 0.00 | 0.00 | 0.00 | 74 | 1006.9 |
| 20260506000215 | 8 | 76 | 8.0 | 11.3 | 0.00 | 0.00 | 0.00 | 73 | 1007.0 |
| 20260505235405 | 8 | 74 | 8.0 | 11.3 | 0.00 | 0.00 | 0.00 | 73 | 1007.1 |
| 20260505234505 | 8 | 82 | 6.4 | 9.7 | 0.00 | 0.00 | 0.00 | 73 | 1007.0 |
| 20260505233606 | 8 | 67 | 8.0 | 11.3 | 0.00 | 0.00 | 0.00 | 73 | 1006.9 |
| 20260505232709 | 8 | 69 | 8.0 | 11.3 | 0.00 | 0.00 | 0.00 | 73 | 1007.0 |
| 20260505231806 | 8 | 51 | 9.7 | 12.9 | 0.00 | 0.00 | 0.00 | 73 | 1006.9 |
| 20260505230907 | 8 | 81 | 8.0 | 11.3 | 0.00 | 0.00 | 0.00 | 73 | 1007.0 |
| 20260505230009 | 8 | 75 | 8.0 | 11.3 | 0.00 | 0.00 | 0.00 | 72 | 1007.0 |
| 20260505225409 | 8 | 69 | 6.4 | 9.7 | 0.00 | 0.00 | 0.00 | 72 | 1007.2 |
| 20260505224719 | 8 | 63 | 8.0 | 11.3 | 0.00 | 0.00 | 0.00 | 73 | 1007.0 |
| 20260505223608 | 9 | 76 | 4.8 | 6.4 | 0.00 | 0.00 | 0.00 | 73 | 1006.9 |
| 20260505222708 | 9 | 74 | 3.2 | 6.4 | 0.00 | 0.00 | 0.00 | 73 | 1007.0 |
| 20260505221809 | 9 | 76 | 4.8 | 9.7 | 0.00 | 0.00 | 0.00 | 73 | 1007.1 |
| 20260505220905 | 9 | 69 | 6.4 | 11.3 | 0.00 | 0.00 | 0.00 | 73 | 1007.0 |
| 20260505220008 | 9 | 61 | 8.0 | 11.3 | 0.00 | 0.00 | 0.00 | 73 | 1006.9 |
| 20260505215408 | 9 | 38 | 9.7 | 17.7 | 0.00 | 0.00 | 0.00 | 73 | 1006.8 |
| 20260505214505 | 9 | 39 | 8.0 | 11.3 | 0.00 | 0.00 | 0.00 | 73 | 1006.8 |
| 20260505213823 | 9 | 62 | 8.0 | 17.7 | 0.00 | 0.00 | 0.00 | 73 | 1006.9 |
| 20260505212706 | 10 | 49 | 8.0 | 12.9 | 0.00 | 0.00 | 0.00 | 73 | 1006.7 |
| 20260505211806 | 10 | 39 | 6.4 | 9.7 | 0.00 | 0.00 | 0.00 | 73 | 1006.7 |
| 20260505210909 | 10 | 24 | 4.8 | 9.7 | 0.00 | 0.00 | 0.00 | 73 | 1006.6 |
| 20260505210006 | 10 | 358 | 4.8 | 9.7 | 0.00 | 0.00 | 0.00 | 73 | 1006.7 |
| 20260505205412 | 10 | 352 | 4.8 | 6.4 | 0.00 | 0.00 | 0.00 | 73 | 1006.5 |
| 20260505204507 | 10 | 329 | 6.4 | 9.7 | 0.00 | 0.00 | 0.00 | 73 | 1006.5 |
| 20260505203605 | 10 | 331 | 8.0 | 11.3 | 0.00 | 0.00 | 0.00 | 72 | 1006.5 |
| 20260505202706 | 10 | 319 | 9.7 | 14.5 | 0.00 | 0.00 | 0.00 | 72 | 1006.6 |
| 20260505201805 | 10 | 326 | 9.7 | 14.5 | 0.00 | 0.00 | 0.00 | 72 | 1006.5 |
| 20260505201115 | 10 | 334 | 8.0 | 12.9 | 0.00 | 0.00 | 0.00 | 72 | 1006.6 |
| 20260505200009 | 10 | 324 | 8.0 | 14.5 | 0.00 | 0.00 | 0.00 | 72 | 1006.2 |
| 20260505195405 | 10 | 330 | 8.0 | 12.9 | 0.00 | 0.00 | 0.00 | 72 | 1006.5 |
| 20260505194506 | 10 | 323 | 11.3 | 12.9 | 0.00 | 0.00 | 0.00 | 71 | 1006.4 |
| 20260505193607 | 10 | 337 | 8.0 | 12.9 | 0.00 | 0.00 | 0.00 | 71 | 1006.4 |
| 20260505192709 | 10 | 326 | 9.7 | 12.9 | 0.00 | 0.00 | 0.00 | 71 | 1006.2 |
| 20260505191807 | 10 | 335 | 8.0 | 12.9 | 0.00 | 0.00 | 0.00 | 71 | 1006.3 |
| 20260505190907 | 11 | 327 | 9.7 | 12.9 | 0.00 | 0.00 | 0.00 | 70 | 1006.1 |
| 20260505190008 | 11 | 319 | 9.7 | 11.3 | 0.00 | 0.00 | 0.00 | 70 | 1006.0 |
| 20260505185405 | 11 | 322 | 11.3 | 14.5 | 0.00 | 0.00 | 0.00 | 70 | 1006.1 |
| 20260505184505 | 10 | 327 | 12.9 | 17.7 | 0.00 | 0.00 | 0.00 | 71 | 1006.0 |
| 20260505183607 | 11 | 310 | 11.3 | 17.7 | 0.00 | 0.00 | 0.00 | 72 | 1006.1 |
| 20260505182709 | 11 | 327 | 12.9 | 17.7 | 0.00 | 0.00 | 0.00 | 72 | 1006.1 |
| 20260505181807 | 11 | 318 | 14.5 | 22.5 | 0.00 | 0.00 | 0.00 | 72 | 1006.1 |
| 20260505180905 | 11 | 316 | 12.9 | 14.5 | 0.00 | 0.00 | 0.00 | 72 | 1006.1 |
| 20260505180007 | 11 | 308 | 14.5 | 17.7 | 0.00 | 0.00 | 0.00 | 71 | 1006.3 |
| 20260505175407 | 11 | 310 | 16.1 | 17.7 | 0.00 | 0.00 | 0.00 | 68 | 1006.0 |
| 20260505174508 | 11 | 313 | 14.5 | 17.7 | 0.00 | 0.00 | 0.00 | 68 | 1006.0 |
| 20260505173605 | 12 | 339 | 14.5 | 17.7 | 0.00 | 0.00 | 0.00 | 68 | 1005.9 |
| 20260505172705 | 12 | 322 | 14.5 | 20.9 | 0.00 | 0.00 | 0.00 | 68 | 1005.8 |
| 20260505172020 | 11 | 336 | 16.1 | 20.9 | 0.00 | 0.00 | 0.00 | 68 | 1006.2 |
| 20260505170905 | 11 | 321 | 16.1 | 24.1 | 0.00 | 0.00 | 0.00 | 68 | 1006.1 |
| 20260505170009 | 12 | 323 | 14.5 | 24.1 | 0.00 | 0.00 | 0.00 | 65 | 1006.1 |
| 20260505165406 | 12 | 323 | 16.1 | 17.7 | 0.00 | 0.00 | 0.00 | 66 | 1006.1 |
| 20260505164506 | 12 | 329 | 16.1 | 22.5 | 0.00 | 0.00 | 0.00 | 63 | 1006.2 |
| 20260505163608 | 12 | 327 | 12.9 | 17.7 | 0.00 | 0.00 | 0.00 | 65 | 1006.0 |
| 20260505162707 | 11 | 311 | 11.3 | 17.7 | 0.00 | 0.00 | 0.00 | 63 | 1006.0 |
| 20260505161808 | 12 | 314 | 14.5 | 17.7 | 0.00 | 0.00 | 0.00 | 67 | 1006.1 |
| 20260505161117 | 11 | 330 | 14.5 | 22.5 | 0.00 | 0.00 | 0.00 | 71 | 1006.0 |
| 20260505152919 | 12 | 340 | 14.5 | 17.7 | 0.00 | 0.00 | 0.00 | 69 | 1006.1 |
| 20260505151807 | 12 | 306 | 14.5 | 17.7 | 0.00 | 0.00 | 0.00 | 69 | 1006.2 |
| 20260505151118 | 12 | 318 | 16.1 | 20.9 | 0.00 | 0.00 | 0.00 | 69 | 1006.2 |
| 20260505124507 | 11 | 332 | 19.3 | 25.7 | 0.00 | 0.00 | 0.00 | 71 | 1006.3 |
| 20260505123606 | 11 | 322 | 19.3 | 24.1 | 0.00 | 0.00 | 0.00 | 72 | 1006.2 |
| 20260505122705 | 11 | 311 | 19.3 | 27.4 | 0.00 | 0.00 | 0.00 | 71 | 1006.4 |
| 20260505122018 | 12 | 305 | 19.3 | 25.7 | 0.00 | 0.00 | 0.00 | 69 | 1006.4 |
| 20260505120907 | 12 | 318 | 14.5 | 17.7 | 0.00 | 0.00 | 0.00 | 68 | 1006.3 |
| 20260505120007 | 12 | 304 | 11.3 | 17.7 | 0.00 | 0.00 | 0.00 | 65 | 1006.2 |
| 20260505115619 | 12 | 315 | 11.3 | 14.5 | 0.00 | 0.00 | 0.00 | 64 | 1006.4 |
| 20260505114506 | 12 | 322 | 12.9 | 22.5 | 0.00 | 0.00 | 0.00 | 64 | 1006.3 |
| 20260505113607 | 12 | 328 | 14.5 | 22.5 | 0.00 | 0.00 | 0.00 | 61 | 1006.5 |
| 20260505112705 | 12 | 317 | 14.5 | 22.5 | 0.00 | 0.00 | 0.00 | 66 | 1006.6 |
| 20260505111807 | 12 | 313 | 14.5 | 17.7 | 0.00 | 0.00 | 0.00 | 66 | 1006.7 |
| 20260505110907 | 11 | 333 | 14.5 | 17.7 | 0.00 | 0.00 | 0.00 | 66 | 1006.8 |
| 20260505101808 | 11 | 305 | 14.5 | 22.5 | 0.00 | 0.00 | 0.00 | 73 | 1006.6 |
| 20260505100905 | 11 | 318 | 11.3 | 17.7 | 0.00 | 0.00 | 0.00 | 71 | 1006.7 |
| 20260505100006 | 11 | 312 | 12.9 | 17.7 | 0.00 | 0.00 | 0.00 | 73 | 1006.8 |
| 20260505095405 | 11 | 321 | 12.9 | 17.7 | 0.00 | 0.00 | 0.00 | 74 | 1006.7 |
| 20260505094505 | 11 | 321 | 12.9 | 20.9 | 0.00 | 0.00 | 0.00 | 75 | 1006.8 |
| 20260505093605 | 11 | 341 | 11.3 | 17.7 | 0.00 | 0.00 | 0.00 | 75 | 1006.8 |
| 20260505092705 | 10 | 327 | 11.3 | 14.5 | 0.00 | 0.00 | 0.00 | 75 | 1006.9 |
| 20260505091809 | 10 | 323 | 12.9 | 17.7 | 0.00 | 0.00 | 0.00 | 76 | 1006.8 |
| 20260505090905 | 10 | 331 | 11.3 | 17.7 | 0.00 | 0.00 | 0.00 | 75 | 1006.9 |
| 20260505090006 | 11 | 335 | 8.0 | 17.7 | 0.00 | 0.00 | 0.00 | 75 | 1007.1 |
| 20260505085621 | 11 | 340 | 8.0 | 11.3 | 0.00 | 0.00 | 0.00 | 75 | 1007.0 |
| 20260505084505 | 10 | 325 | 9.7 | 14.5 | 0.00 | 0.00 | 0.00 | 76 | 1007.1 |
| 20260505083607 | 11 | 334 | 8.0 | 9.7 | 0.00 | 0.00 | 0.00 | 77 | 1007.0 |
| 20260505082705 | 10 | 332 | 9.7 | 12.9 | 0.00 | 0.00 | 0.00 | 77 | 1006.9 |
| 20260505081808 | 10 | 325 | 9.7 | 12.9 | 0.00 | 0.00 | 0.00 | 79 | 1006.9 |
| 20260505080905 | 10 | 336 | 11.3 | 17.7 | 0.00 | 0.00 | 0.00 | 79 | 1006.8 |
| 20260505080007 | 10 | 329 | 8.0 | 17.7 | 0.00 | 0.00 | 0.00 | 81 | 1006.7 |
| 20260505075405 | 10 | 326 | 9.7 | 12.9 | 0.00 | 0.00 | 0.00 | 81 | 1006.6 |
| 20260505074509 | 10 | 326 | 8.0 | 12.9 | 0.00 | 0.00 | 0.00 | 81 | 1006.5 |
| 20260505073605 | 10 | 335 | 11.3 | 17.7 | 0.00 | 0.00 | 0.00 | 81 | 1006.7 |
| 20260505072705 | 10 | 333 | 11.3 | 17.7 | 0.00 | 0.00 | 0.00 | 81 | 1006.7 |
| 20260505071806 | 10 | 329 | 9.7 | 17.7 | 0.00 | 0.00 | 0.00 | 81 | 1006.6 |
| 20260505070906 | 10 | 328 | 8.0 | 9.7 | 0.00 | 0.00 | 0.00 | 81 | 1006.6 |
| 20260505070009 | 10 | 326 | 8.0 | 12.9 | 0.00 | 0.00 | 0.00 | 81 | 1006.5 |
| 20260505065405 | 10 | 310 | 6.4 | 11.3 | 0.00 | 0.00 | 0.00 | 80 | 1006.7 |
| 20260505064508 | 10 | 326 | 4.8 | 9.7 | 0.00 | 0.00 | 0.00 | 80 | 1006.6 |
| 20260505063606 | 9 | 327 | 4.8 | 9.7 | 0.00 | 0.00 | 0.00 | 80 | 1006.8 |
| 20260505062707 | 9 | 309 | 4.8 | 6.4 | 0.00 | 0.00 | 0.00 | 80 | 1006.8 |
| 20260505062017 | 9 | 307 | 4.8 | 6.4 | 0.00 | 0.00 | 0.00 | 79 | 1006.8 |
| 20260505060907 | 9 | 300 | 4.8 | 9.7 | 0.00 | 0.00 | 0.00 | 79 | 1006.6 |
| 20260505060007 | 8 | 300 | 3.2 | 6.4 | 0.00 | 0.00 | 0.00 | 80 | 1006.8 |
| 20260505055405 | 8 | 295 | 3.2 | 6.4 | 0.00 | 0.00 | 0.00 | 80 | 1006.7 |
| 20260505054505 | 8 | 280 | 3.2 | 3.2 | 0.00 | 0.00 | 0.00 | 80 | 1006.7 |
| 20260505053607 | 8 | 278 | 3.2 | 6.4 | 0.00 | 0.00 | 0.00 | 80 | 1006.7 |
| 20260505052707 | 8 | 307 | 4.8 | 6.4 | 0.00 | 0.00 | 0.00 | 80 | 1006.7 |
| 20260505051806 | 7 | 295 | 4.8 | 6.4 | 0.00 | 0.00 | 0.00 | 82 | 1006.6 |
| 20260505050908 | 7 | 284 | 4.8 | 6.4 | 0.00 | 0.00 | 0.00 | 82 | 1006.6 |
| 20260505041120 | 7 | 293 | 3.2 | 6.4 | 0.00 | 0.00 | 0.00 | 81 | 1006.3 |
| 20260505040007 | 7 | 302 | 6.4 | 12.9 | 0.00 | 0.00 | 0.00 | 81 | 1006.5 |
| 20260505035407 | 7 | 288 | 4.8 | 6.4 | 0.00 | 0.00 | 0.00 | 81 | 1006.4 |
| 20260505034716 | 7 | 283 | 6.4 | 9.7 | 0.00 | 0.00 | 0.00 | 81 | 1006.5 |
| 20260505033607 | 7 | 285 | 6.4 | 6.4 | 0.00 | 0.00 | 0.00 | 81 | 1006.3 |
| 20260505032704 | 7 | 296 | 6.4 | 6.4 | 0.00 | 0.00 | 0.00 | 82 | 1006.2 |
| 20260505031805 | 7 | 295 | 3.2 | 6.4 | 0.00 | 0.00 | 0.00 | 83 | 1006.2 |
| 20260505030908 | 7 | 297 | 3.2 | 3.2 | 0.00 | 0.00 | 0.00 | 83 | 1006.3 |
| 20260505030007 | 7 | 288 | 3.2 | 3.2 | 0.00 | 0.00 | 0.00 | 84 | 1006.4 |
| 20260505025620 | 7 | 287 | 3.2 | 6.4 | 0.00 | 0.00 | 0.00 | 84 | 1006.4 |
| 20260505024508 | 7 | 288 | 3.2 | 3.2 | 0.00 | 0.00 | 0.00 | 84 | 1006.4 |
| 20260505023607 | 7 | 291 | 3.2 | 6.4 | 0.00 | 0.00 | 0.00 | 84 | 1006.5 |
| 20260505022707 | 7 | 306 | 1.6 | 3.2 | 0.00 | 0.00 | 0.00 | 83 | 1006.5 |
| 20260505022019 | 7 | 312 | 3.2 | 3.2 | 0.00 | 0.00 | 0.00 | 83 | 1006.5 |
| 20260505020907 | 7 | 285 | 1.6 | 3.2 | 0.00 | 0.00 | 0.00 | 82 | 1006.6 |
| 20260505020007 | 7 | 294 | 3.2 | 3.2 | 0.00 | 0.00 | 0.00 | 81 | 1006.8 |
| 20260505015408 | 7 | 283 | 3.2 | 6.4 | 0.00 | 0.00 | 0.00 | 81 | 1006.7 |
| 20260505014508 | 7 | 274 | 3.2 | 6.4 | 0.00 | 0.00 | 0.00 | 80 | 1006.8 |
| 20260505013606 | 7 | 263 | 3.2 | 6.4 | 0.00 | 0.00 | 0.00 | 79 | 1006.9 |
| 20260505012708 | 7 | 261 | 3.2 | 3.2 | 0.00 | 0.00 | 0.00 | 78 | 1006.9 |
| 20260505011808 | 8 | 266 | 3.2 | 6.4 | 0.00 | 0.00 | 0.00 | 76 | 1007.0 |